Location: Essen
(51.4609°N, 7.0127°E)
Time: 15:41:43
(UTC+02:00)

ISS - Pass Details

Date: 06 January 2018
Orbit: 401 x 409 km, 51.6° (Epoch: 19 August)

Event Time Altitude Azimuth Distance (km) Brightness Sun altitude
Exits shadow 05:23:27 18° 82° (E) 1,100 -0.9 -28.9°
Drops below altitude 10° 05:24:29 10° 81° (E) 1,513 0.0 -28.7°
Enters shadow 06:20:29 -69° 269° (W) 12,325 3.6 -20.0°
Maximum altitude 06:57:48 90° 324° (NW) 429 -3.8 -14.4°
